Regional Weather Roundup
Issued by NWS Wakefield, VA

Home | Current Version | Previous Version | Text Only | Print | Product List | Glossary On
Versions: 1 2 3 4 5 6 7 8 9 10 11 12 13 14 15 16 17 18 19 20 21 22 23 24 25 26
000
ASUS41 KAKQ 240614
RWRAKQ

REGIONAL WEATHER ROUNDUP
NATIONAL WEATHER SERVICE WAKEFIELD VA
100 AM EST FRI FEB 24 2017

Note: "fair" indicates few or no clouds below 12,000 feet with no
significant weather and/or obstructions to visibility. * = Denotes
station may not report precipitation (e.g., rain,snow,etc.),
thunder or fog.

VAZ042-051-052>054-056-240700-
NORTHERN VIRGINIA

CITY           SKY/WX    TMP DP  RH WIND       PRES   REMARKS
WASH NATIONAL  CLEAR     61  52  72 S12       29.90S
DULLES         PTCLDY    61  50  67 S10       29.88F
FORT BELVOIR   CLEAR     52  48  85 CALM      29.90S
QUANTICO       CLEAR     57  51  80 SW8       29.92R
FREDERICKSBRG* CLEAR     59  53  80 S6        29.90S
STAFFORD*      CLEAR     57  52  81 S3        29.95R
WARRENTON      CLEAR     51  46  83 CALM      29.89F
CULPEPER*      CLEAR     50  49  97 CALM      29.91S
MANASSAS*        N/A     49  46  90 SE3       29.90S
LEESBURG*      CLEAR     61  54  77 MISG      29.89S
WINCHESTER     PTCLDY    55  50  82 S5        29.87S
FRONT ROYAL*   NOT AVBL
LURAY*         NOT AVBL
$$

VAZ048-049-060>072-079>083-240700-
CENTRAL AND SOUTH CENTRAL VIRGINIA

CITY           SKY/WX    TMP DP  RH WIND       PRES   REMARKS
RICHMOND       CLEAR     57  54  89 S6        29.93S
CHESTERFIELD*  FAIR      55  39  54 S6        29.94F
PETERSBURG*    CLEAR     46  45  96 CALM      29.94S
HANOVER        CLEAR     58  51  78 S5        29.94S
TAPPAHANNOCK*  CLEAR     58  48  69 S3        29.94S
QUINTON*       NOT AVBL
CHARLOTTSVILLE CLEAR     58  51  78 S6        29.89F
GORDONSVILLE*  NOT AVBL
ORANGE*        PTCLDY    46  45  93 CALM      29.91F
LOUISA*        PTCLDY    61  54  77 CALM      29.90S
BUMPASS*       NOT AVBL
FARMVILLE*     CLEAR     55  52  89 CALM      29.91S
CREWE*         NOT AVBL
FORT PICKETT*  NOT AVBL
CHASE CITY*    NOT AVBL
CLARKSVILLE*   NOT AVBL
SOUTH HILL*    CLEAR     51  51 100 CALM      29.99S
LAWRENCEVILLE* NOT AVBL
EMPORIA*         N/A     46  46 100 CALM      29.95F
$$

VAZ088>098-240700-
SOUTHEAST VIRGINIA

CITY           SKY/WX    TMP DP  RH WIND       PRES   REMARKS
NORFOLK        CLEAR     58  52  80 S6        29.94S
VIRGINIA BEACH CLEAR     50  48  93 S3        29.94F
NORFOLK NAVAL  CLEAR     58  52  80 S5        29.95F
WEST POINT*    CLEAR     55  51  89 CALM      29.95S
SALUDA*        NOT AVBL
NEWPORT NEWS   CLEAR     54  51  90 S5        29.94S
LANGLEY AFB    CLEAR     56  54  91 SW6       29.93F
FORT EUSTIS    CLEAR     56  51  85 SE5       29.91F
WILLIAMSBURG*  CLEAR     55  54  94 CALM      29.94F
HR EXEC AP*    NOT AVBL
FRANKLIN*      CLEAR     51  50  95 CALM      29.94F
US460-WAKEFLD  CLEAR     52  51  97 CALM      29.94S
$$

VAZ020-022-025-037-045-240700-
WEST CENTRAL AND SOUTHWEST VIRGINIA

CITY           SKY/WX    TMP DP  RH WIND       PRES   REMARKS
STAUNTON*      CLEAR     45  43  93 CALM      29.92S
WAYNESBORO*    NOT AVBL
HOT SPRINGS VA CLEAR     54  45  71 CALM      29.96S
LYNCHBURG      NOT AVBL
DANVILLE       CLEAR     51  51 100 CALM      29.92S
SOUTH BOSTON*  NOT AVBL
MARTINSVILLE   CLEAR     47  47  97 CALM      29.94S FOG
ROANOKE        CLEAR     53  50  89 W3        29.93S
BLACKSBURG     CLEAR     48  47  96 CALM      29.96F
DUBLIN*        CLEAR     51  50  96 CALM      29.94F
MARION*        CLEAR     54  49  84 CALM      29.95S
HILLSVILLE*    CLEAR     55  50  83 S7        29.94F
RICHLANDS*     FAIR      58  48  69 S3        29.90F
WISE*          PTCLDY    59  46  63 S9G18     29.90S
ABINGDON*      PTCLDY    56  51  82 E5        29.89F
$$

MDZ021>025-VAZ099-100-240700-
SOUTHERN MARYLAND AND THE DELMARVA PENINSULA

CITY           SKY/WX    TMP DP  RH WIND       PRES   REMARKS
PATUXENT RIVER CLEAR     59  54  83 S6        29.92S
BAY BRIDGE APT CLEAR     55  52  88 S10       29.92R
LEONARDTOWN    CLEAR     59  52  77 S5        29.94S
DOVER          CLEAR     57  57 100 S9        29.92R
GEORGETOWN     CLEAR     55  51  86 S6        29.94S
EASTON         CLEAR     58  52  80 S7        29.96S
CAMBRIDGE      CLEAR     55  52  88 S7        29.94R
SALISBURY      CLEAR     54  51  90 S3        29.94S
OCEAN CITY     CLEAR     51  49  92 SW7       29.95F
WALLOPS ISLAND CLEAR     51  50  96 S12       29.95F
ACCOMACK*      CLEAR     56  53  88 S7        29.94F
$$

NCZ012>017-030>032-240700-
NORTH CENTRAL AND EASTERN NORTH CAROLINA

CITY           SKY/WX    TMP DP  RH WIND       PRES   REMARKS
ROANOKE RAPIDS FAIR      50  50 100 CALM      29.94S
RALEIGH        CLEAR     57  51  80 SE3       29.93S
ELIZABETH CITY CLOUDY    53  51  93 CALM      29.95S
AHOSKIE*         N/A     49  49  99 CALM      29.94F FOG
EDENTON*       CLOUDY    55  52  90 CALM      29.95S
CURRITUCK*     CLOUDY    53  53 100 CALM      29.96S
KILL DEVIL HLS NOT AVBL
MANTEO         CLOUDY    54  53  98 CALM      29.96S
CAPE HATTERAS  CLOUDY    66  61  84 SE13      29.93S HAZE
TARBORO*       NOT AVBL
GOLDSBORO      CLEAR     53  53 100 CALM      29.92R
WASHINGTON     CLEAR     53  52  97 CALM      29.95R
GREENVILLE     CLEAR     54  54 100 CALM      29.96R FOG
NEW BERN       PTCLDY    54  54 100 CALM      29.94S FOG
WILMINGTON     PTCLDY    56  56 100 NE5       29.91R
$$

VAZ048-240700-
ELSEWHERE

CITY           SKY/WX    TMP DP  RH WIND       PRES   REMARKS
HARRISBURG PA  PTCLDY    56  50  80 E6        29.86R
BALTIMORE      PTCLDY    51  48  89 E5        29.90R
ANNAPOLIS      CLEAR     51  48  89 SE6       29.91R
ANDREWS AFB    CLEAR     59  51  76 S10       29.90R
PHILADELPHIA   PTCLDY    56  50  80 S7        29.92S
HENDERSON NC   CLEAR     55  50  83 S5        29.93F
GREENSBORO     CLEAR     56  51  84 S7        29.92R
ROCKY MOUNT    CLEAR     51  51 100 CALM      29.93F FOG
$$

VAZ100-240700-
MARINE

STATION/POSITION TIME  TEMP    WIND        PRES    WAVE   SWELL
                       AIR SEA DIR/SP/G            HT/PER HT/PER
                 (UTC) (F)     (DEG/KT/KT) (MB)    (FT/S) (FT/S)
CAPE MAY NJ      0548      44  150/  7/  8 1013.6R
LEWES DE         0548      44  200/  3/  5 1013.6R
OCEAN-CITY-INLET 0548      47  220/  7/  9 1014.5F
WACHAPREAGUE VA  0548      55  200/  4/  5 1014.0F
THOMAS POINT MD  0600   51 43  170/ 17/ 18   N/A
GOOSES REEF MD   0600   48 44  160/ 10/ 12 1013.8    1/ 2
COVE POINT MD    0548          190/ 11/ 12 1014.0R
SOLOMONS ISLAND  0548      45  170/  4/  7   N/A
BISHOPS HEAD MD  0548      49  160/  5/  6 1013.9S
PINEY POINT MD   0548          140/  5/  5   N/A
POTOMAC MD       0600   50 47  160/  2/  4 1012.8    0
CAMBRIDGE MD     0548      43  180/  4/  7 1013.0R
LEWISETTA VA     0548      44  220/  7/  8 1013.2S
RAPPAHANNOCK LGT 0548          140/ 10/ 10 1014.3F
YORK RVR RNG VA  0548          180/  7/  8 1013.1S
YORKTOWN VA      0548      49  200/  4/  6 1013.2F
JAMESTOWN VA     0600   58 52  120/  4/  6   N/A     0
DOMINION TERM VA 0548          130/  5/  6 1013.5F
KIPTOPEKE VA     0548      48  160/  8/  9   N/A
CHES BAY BRIDGE  0548      49  160/  9/ 10 1013.7F
CAPE HENRY VA    0548          170/  8/  9   N/A
WILLOUBY STN VA  0548          170/ 11/ 11 1014.4F
S CRANEY ISL VA  0548          210/  1/  2 1013.6F
CAPE HENRY BUOY  0542      49                N/A     2/12   2/12
OFFSHORE WE BUOY 0551      49                N/A     3/10   2/11
64NM E OF VA BCH 0550   58 54  140/  6/  6 1014.6R   4/11   3/11
DUCK PIER NC     0548      49  120/  5/  5 1013.9R
44100 DUCK FRF   0535      49                N/A     4/10   2/11
44056 DUCK FRF   0530      50                N/A     3/11   2/11
OREGON INLET NC  0542      57   50/  3/  4 1014.2R
HATTERAS NC      0548      62  140/  7/ 11 1013.1F
DIAMOND SHLS NC  0550   68 74  120/ 17/ 21 1013.3F   6/ 7   2/11
CAPE LOOKOUT NC  0600   66     140/ 11/ 12 1012.5F
$$




USA.gov is the U.S. government's official web portal to all federal, state and local government web resources and services.